Meteo Giornale » Osservazioni meteo Repubblica Ceca » Praha-Ruzyne

ore: 03:30 - Osservazioni Meteo Praha-Ruzyne
Lat. 50° 6' N Lon. 14° 15' E Alt. 365 metri s.l.m.

sereno Europe/Prague

14 °C

Sereno

Temp. 24 Ore

11 °C

27 °C

Sud

11.1 Km/h

Dew point 9 °C

Umidità 71 %

Visibilità  10 Km

Il sole sorge alle ore 04:58

Il sole tramonta alle ore 21:02

Data e Ora Cielo e Fenomeni T °C DP °C Um. % Pres. hPa Vis. km Vento km/h
Oggi h: 03:30 sereno Sereno 14 9 71 1017 10 S 11.1
Oggi h: 03:00 sereno Sereno 15 9 67 1017 10 S 13
Oggi h: 02:30 sereno Sereno 16 9 63 1018 10 S 14.8
Oggi h: 02:00 sereno Sereno 16 9 63 1018 10 S 14.8
Oggi h: 01:30 sereno Sereno 16 9 63 1018 10 S 16.7
Oggi h: 01:00 sereno Sereno 16 9 63 1019 10 S 16.7
Oggi h: 00:30 sereno Sereno 17 9 59 1019 10 S 16.7
Oggi h: 00:00 sereno Sereno 16 9 63 1019 10 S 14.8
Ieri h: 23:30 sereno Sereno 17 9 59 1019 10 S/SE 14.8
Ieri h: 23:00 sereno Sereno 18 9 55 1019 10 S/SE 14.8
Ieri h: 22:30 sereno Sereno 18 8 51 1019 10 S/SE 13
Ieri h: 22:00 sereno Sereno 20 8 45 1019 10 S/SE 9.3
Ieri h: 21:30 sereno Sereno 20 8 45 1019 10 S/SE 9.3
Ieri h: 21:00 sereno Sereno 21 8 43 1019 10 S/SE 7.4
Ieri h: 20:30 sereno Sereno 23 8 38 1019 10 S/SE 7.4
Ieri h: 20:00 sereno Sereno 25 8 33 1019 10 S/SE 9.3
Ieri h: 19:30 sereno Sereno 25 9 36 1019 10 S/SE 9.3
Ieri h: 19:00 sereno Sereno 26 9 34 1019 10 S/SE 11.1
Ieri h: 18:30 sereno Sereno 26 7 29 1019 10 N 9.3
Ieri h: 18:00 sereno Sereno 26 8 31 1020 10 S 9.3
Ieri h: 17:30 sereno Sereno 27 8 30 1020 10 N 5.5
Ieri h: 17:00 sereno Sereno 27 7 28 1020 10 SE 13
Ieri h: 16:30 sereno Sereno 26 8 31 1021 10 S/SO 9.3
Ieri h: 16:00 sereno Sereno 26 9 34 1021 10 S 11.1
Ieri h: 15:30 sereno Sereno 26 9 34 1021 10 N 11.1
Ieri h: 15:00 sereno Sereno 26 9 34 1021 10 SE 13
Ieri h: 14:30 sereno Sereno 25 8 33 1021 10 S/SE 9.3
Ieri h: 14:00 sereno Sereno 25 8 33 1022 10 N 9.3
Ieri h: 13:30 sereno Sereno 25 9 36 1022 10 SE 9.3
Ieri h: 13:00 sereno Sereno 24 8 35 1023 10 S 7.4
Ieri h: 12:30 sereno Sereno 23 9 40 1023 10 S/SE 7.4
Ieri h: 12:00 sereno Sereno 23 9 40 1023 10 SE 7.4
Ieri h: 11:30 sereno Sereno 22 8 40 1023 10 SE 9.3
Ieri h: 11:00 sereno Sereno 22 9 43 1023 10 N 9.3
Ieri h: 10:30 sereno Sereno 21 10 49 1023 10 S/SE 9.3
Ieri h: 10:00 sereno Sereno 20 9 49 1023 10 S/SE 9.3
Ieri h: 09:30 sereno Sereno 19 9 52 1024 10 S/SE 7.4
Ieri h: 09:00 sereno Sereno 18 9 55 1024 10 S/SE 7.4
Ieri h: 08:30 sereno Sereno 18 9 55 1024 10 S 9.3
Ieri h: 08:00 sereno Sereno 17 9 59 1023 10 S/SE 11.1
Ieri h: 07:30 sereno Sereno 16 9 63 1023 10 S/SE 11.1
Ieri h: 07:00 sereno Sereno 15 9 67 1023 10 S/SE 9.3
Ieri h: 06:30 sereno Sereno 14 8 67 1023 10 S/SE 9.3
Ieri h: 06:00 sereno Sereno 12 8 76 1023 10 S/SE 9.3
Ieri h: 05:30 sereno Sereno 12 7 71 1023 10 S/SE 9.3
Ieri h: 05:00 sereno Sereno 12 7 71 1023 10 S/SE 9.3
Ieri h: 04:30 sereno Sereno 13 7 66 1023 10 S/SE 11.1
Ieri h: 04:00 sereno Sereno 11 7 76 1023 10 S 7.4